EW4389 Weather Reports


Display with metric or nautical units.
time (UTC)temp
F
wind
direction
speed
MPH
gust
MPH
rain 1hr
in
rain 24hr
in
rain mn
in
humidity
%
barometer
mb
20260509074523 42 324 0.0 2.0 0.00 0.09 0.00 73 1006.0
20260509073021 42 325 0.0 0.0 0.00 0.09 0.00 73 1005.9
20260509071521 42 324 0.0 2.0 0.00 0.09 0.00 71 1006.0
20260509070019 42 324 0.0 3.0 0.00 0.09 0.00 71 1006.1
20260509064517 43 325 0.0 2.0 0.00 0.09 0.00 72 1006.3
20260509063014 42 325 0.0 4.0 0.00 0.09 0.00 70 1006.6
20260509061512 42 325 0.0 2.0 0.00 0.09 0.00 66 1006.8
20260509060012 43 325 0.0 1.0 0.00 0.09 0.00 64 1006.9
20260509054510 43 325 0.0 3.0 0.00 0.09 0.00 63 1007.2
20260509053008 43 325 0.0 3.0 0.00 0.09 0.00 65 1007.4
20260509051501 44 327 0.0 3.0 0.00 0.09 0.00 65 1007.5
20260509050101 44 327 0.0 0.0 0.00 0.09 0.00 63 1007.6
20260509044558 44 327 0.0 0.0 0.00 0.09 0.00 65 1007.8
20260509043102 44 327 0.0 0.0 0.00 0.09 0.00 66 1007.7
20260509041551 44 327 0.0 1.0 0.00 0.09 0.00 66 1007.8
20260509040053 44 327 0.0 0.0 0.00 0.09 0.00 65 1007.8
20260509034558 43 327 0.0 0.0 0.00 0.09 0.09 66 1007.9
20260509033048 43 327 0.0 0.0 0.00 0.09 0.09 63 1007.7
20260509031556 44 327 0.0 0.0 0.00 0.09 0.09 66 1007.9
20260509030046 44 327 0.0 0.0 0.00 0.09 0.09 66 1008.0
20260509024545 44 327 0.0 0.0 0.00 0.09 0.09 61 1008.0
20260509023054 44 327 0.0 0.0 0.00 0.09 0.09 66 1008.1
20260509021545 45 327 0.0 0.0 0.00 0.09 0.09 59 1008.2
20260509020049 45 327 0.0 0.0 0.00 0.09 0.09 63 1008.2
20260509014543 46 327 0.0 0.0 0.00 0.09 0.09 62 1008.1
20260509013105 47 327 0.0 0.0 0.00 0.09 0.09 64 1008.0
20260509011542 47 327 0.0 0.0 0.00 0.09 0.09 66 1007.9
20260509010042 48 327 0.0 0.0 0.00 0.09 0.09 65 1007.6
20260509004542 49 327 0.0 0.0 0.00 0.09 0.09 64 1007.4
20260509003041 50 327 0.0 2.0 0.00 0.09 0.09 56 1007.4
20260509001541 51 327 1.0 3.0 0.00 0.09 0.09 51 1007.2
20260509000040 52 327 1.0 5.0 0.00 0.09 0.09 50 1007.2
20260508234540 52 327 4.0 9.0 0.00 0.09 0.09 49 1007.2
20260508233039 53 322 3.0 9.0 0.00 0.09 0.09 50 1006.9
20260508231542 54 311 6.0 14.0 0.00 0.09 0.09 48 1006.8
20260508230051 54 290 5.0 13.0 0.00 0.09 0.09 51 1006.8
20260508224556 54 13 4.0 9.0 0.00 0.09 0.09 53 1006.7
20260508223036 54 314 4.0 10.0 0.00 0.09 0.09 55 1006.8
20260508221535 54 290 5.0 14.0 0.00 0.09 0.09 55 1006.7
20260508220034 55 315 4.0 6.0 0.00 0.09 0.09 55 1006.7
20260508214534 55 334 5.0 10.0 0.00 0.09 0.09 59 1006.7
20260508213032 55 334 7.0 11.0 0.00 0.09 0.09 55 1006.9
20260508211530 54 320 4.0 8.0 0.00 0.09 0.09 52 1007.0
20260508210032 54 339 5.0 10.0 0.00 0.09 0.09 56 1007.0
20260508204528 53 5 0.0 11.0 0.00 0.09 0.09 54 1007.1
20260508203027 55 357 5.0 11.0 0.00 0.09 0.09 58 1007.2
20260508201529 54 297 5.0 13.0 0.00 0.09 0.09 55 1007.4
20260508200022 54 294 8.0 15.0 0.00 0.09 0.09 58 1007.7
20260508194522 54 302 6.0 11.0 0.00 0.09 0.09 61 1007.7
20260508193039 53 334 4.0 11.0 0.00 0.09 0.09 59 1008.0
20260508191523 54 329 5.0 15.0 0.00 0.09 0.09 65 1008.2
20260508190030 53 261 5.0 15.0 0.00 0.09 0.09 61 1008.3
20260508184518 52 269 7.0 13.0 0.00 0.09 0.09 62 1008.4
20260508183017 51 323 7.0 13.0 0.00 0.09 0.09 62 1008.4
20260508181521 51 301 6.0 13.0 0.00 0.09 0.09 65 1008.4
20260508180014 49 250 5.0 14.0 0.00 0.09 0.09 61 1008.6
20260508174513 50 258 6.0 14.0 0.00 0.09 0.09 67 1008.8
20260508173011 50 285 10.0 15.0 0.00 0.09 0.09 68 1009.0
20260508171512 49 257 7.0 11.0 0.00 0.09 0.09 67 1009.2
20260508170007 48 325 7.0 12.0 0.00 0.09 0.09 65 1009.2
20260508164504 46 258 3.0 10.0 0.00 0.09 0.09 62 1009.4
20260508163003 46 344 1.0 12.0 0.00 0.09 0.09 62 1009.3
20260508161503 45 263 6.0 9.0 0.00 0.09 0.09 61 1009.6
20260508154559 43 285 3.0 9.0 0.00 0.09 0.09 58 1009.8
20260508153059 43 262 1.0 7.0 0.00 0.09 0.09 57 1009.7
20260508151558 42 260 5.0 9.0 0.00 0.09 0.09 53 1009.7
20260508150053 41 334 1.0 4.0 0.00 0.09 0.09 51 1009.6
20260508144551 41 334 1.0 5.0 0.00 0.09 0.09 50 1009.7
20260508143051 40 334 0.0 4.0 0.01 0.09 0.09 51 1009.5
20260508141549 40 334 0.0 4.0 0.01 0.09 0.09 50 1009.1
20260508140048 40 334 0.0 3.0 0.01 0.09 0.09 50 1009.1
20260508134547 40 334 1.0 4.0 0.02 0.09 0.09 51 1009.2
20260508133102 39 329 5.0 8.0 0.03 0.08 0.08 52 1009.6
20260508131544 39 339 3.0 10.0 0.04 0.08 0.08 53 1009.6
20260508130042 39 317 4.0 9.0 0.04 0.07 0.07 53 1009.4
20260508124541 38 287 3.0 8.0 0.04 0.07 0.07 55 1009.3
20260508123040 39 275 2.0 7.0 0.03 0.05 0.05 55 1009.2
20260508121537 39 275 3.0 7.0 0.03 0.04 0.04 55 1009.0
20260508120035 39 278 3.0 10.0 0.02 0.03 0.03 57 1008.5
20260508114533 39 279 6.0 11.0 0.03 0.03 0.03 58 1008.5
20260508113036 39 290 7.0 11.0 0.02 0.02 0.02 59 1008.4
20260508111532 39 286 3.0 8.0 0.01 0.01 0.01 59 1008.1
20260508110032 39 279 2.0 4.0 0.01 0.01 0.01 60 1007.8
20260508104529 39 278 4.0 9.0 0.00 0.00 0.00 59 1007.7
20260508103029 39 270 2.0 8.0 0.00 0.00 0.00 58 1007.8
20260508101527 39 271 1.0 4.0 0.00 0.00 0.00 57 1007.7
20260508100025 40 272 2.0 7.0 0.00 0.00 0.00 56 1008.0
20260508094524 40 272 3.0 8.0 0.00 0.00 0.00 55 1008.2
20260508093023 40 275 2.0 10.0 0.00 0.00 0.00 54 1008.4
20260508091532 40 269 4.0 9.0 0.00 0.00 0.00 54 1008.3
20260508090021 40 261 4.0 10.0 0.00 0.00 0.00 53 1008.4
20260508084520 40 273 4.0 10.0 0.00 0.00 0.00 53 1008.4
20260508083029 39 275 2.0 8.0 0.00 0.00 0.00 54 1008.3
20260508081518 39 277 3.0 8.0 0.00 0.00 0.00 54 1008.2
20260508080017 39 283 4.0 8.0 0.00 0.00 0.00 54 1008.0